Theta_e
292 288 286 286 289 290 289 291 291 286 286 285 283 282 283 283 284 285 285 286 286 288 286 289 288 288 290 291 293 290 287 288 289 290 291 291 292 291 291 292 293 293 294 292 293 292 293 295 298 301 303 303 303 303 304 303 303 303 302 302 301 301 300 299 299 300 299 298 297 298 297 296 297 294 294 293 293 294 294 295 295 295 296 296 296 295
290 287 287 290 292 289 290 289 286 286 286 288 284 285 285 283 286 287 289 289 287 288 283 283 284 287 289 291 292 289 286 289 290 290 291 292 292 292 292 292 292 293 290 290 291 291 292 295 298 300 302 302 301 302 303 303 303 303 302 302 301 300 300 300 300 300 299 299 298 296 294 295 295 295 294 293 292 293 294 293 293 294 294 294 294 294
287 288 290 292 288 288 287 288 287 288 287 285 287 284 284 284 284 287 287 286 287 287 286 285 287 289 289 290 291 290 290 291 292 292 294 294 293 292 292 293 292 291 291 291 292 291 293 294 298 300 301 302 302 302 302 303 303 302 302 301 300 301 301 300 299 298 295 296 295 294 293 292 290 292 293 292 293 292 291 292 292 292 293 293 292 293
285 285 292 289 288 289 286 285 287 287 286 285 283 285 285 283 285 284 284 286 288 288 284 282 285 288 288 290 290 292 292 291 291 292 293 294 293 293 294 294 293 292 292 290 291 291 292 294 298 300 301 301 301 301 301 302 302 302 301 301 301 301 300 297 296 295 294 292 292 292 292 292 291 289 290 290 291 291 291 289 290 291 291 291 291 291
289 288 289 290 289 290 287 285 286 286 286 283 286 284 284 285 285 287 285 285 285 286 284 285 287 289 289 290 291 292 287 289 293 292 291 292 292 294 293 291 293 293 292 291 291 291 292 294 297 300 301 302 301 300 300 301 302 302 301 301 301 300 298 295 294 293 293 292 290 290 290 290 290 290 290 290 289 289 289 289 288 288 289 289 289 289
288 289 288 289 288 288 286 284 286 287 284 282 284 288 288 287 287 284 284 287 284 281 283 284 281 279 280 287 289 289 286 289 289 290 292 294 294 292 291 292 291 292 293 293 292 292 292 294 297 300 301 301 301 300 300 301 302 301 301 301 299 298 295 294 293 293 292 291 290 289 290 289 289 289 290 290 288 288 288 286 286 287 288 288 288 288
289 289 291 288 288 286 286 285 284 288 286 284 284 286 289 288 286 286 285 286 279 279 284 283 283 280 282 286 287 285 285 289 291 289 292 293 293 291 292 292 291 291 291 291 292 292 292 294 297 300 300 301 300 301 300 300 301 300 299 299 298 296 294 293 293 294 293 292 294 294 293 293 292 291 287 287 287 286 285 286 285 286 286 286 286 286
288 289 288 286 286 286 285 284 287 289 287 282 283 283 286 286 286 285 284 286 282 280 283 282 280 282 285 287 289 291 290 290 290 293 294 295 294 292 291 291 290 291 291 292 292 292 293 294 297 299 301 301 301 300 298 298 298 298 297 297 296 295 294 293 293 294 294 293 295 295 293 292 291 289 285 285 285 286 285 285 284 285 285 285 285 284
289 286 286 286 285 284 286 286 285 290 287 283 286 283 284 286 284 284 285 282 282 281 281 282 284 283 281 282 285 286 287 287 291 293 295 296 294 291 291 291 290 291 291 292 291 291 292 294 297 300 300 301 300 298 297 297 296 297 296 296 295 294 293 293 293 293 294 295 296 294 291 287 286 286 285 285 286 285 285 284 284 284 283 282 282 282
286 288 290 291 289 287 285 283 287 291 288 286 284 285 283 282 281 280 281 284 280 278 280 282 283 278 285 282 286 283 286 287 291 294 296 296 292 290 290 290 290 289 289 291 291 291 292 294 297 300 301 300 299 297 296 296 296 296 296 294 293 292 292 292 293 293 293 293 293 292 289 286 285 285 284 284 283 283 284 283 282 281 281 281 281 281
288 290 290 289 288 288 285 285 286 289 287 287 285 287 284 281 280 278 279 278 280 276 283 283 284 284 282 282 286 287 288 290 293 292 293 293 288 288 288 288 288 288 288 289 290 290 291 293 297 300 300 299 297 295 294 294 295 295 295 294 293 293 292 292 292 292 291 290 291 290 288 286 285 285 284 283 282 282 282 281 280 280 281 280 280 280
289 288 289 289 289 287 288 287 285 284 285 287 286 282 286 285 278 278 273 275 274 276 281 280 284 285 280 279 282 287 286 285 290 291 292 291 289 288 287 287 287 287 288 289 289 289 291 293 296 299 299 297 295 293 293 294 294 294 294 293 292 292 292 292 291 291 289 289 289 288 287 286 285 285 284 283 282 282 281 281 280 280 280 280 280 280
285 287 285 289 289 290 286 287 286 284 288 286 286 287 281 274 272 273 272 275 273 278 279 278 282 281 283 288 283 285 290 290 288 291 293 292 292 291 287 286 286 287 287 289 289 289 291 293 296 298 298 296 294 293 293 293 294 294 293 293 292 291 291 290 290 289 288 288 288 288 287 286 286 285 285 284 283 282 281 281 280 280 280 279 280 279
283 283 285 288 289 289 291 288 283 284 287 285 287 283 279 273 273 269 267 264 270 276 278 281 282 282 281 286 292 294 294 294 291 290 291 292 292 292 289 286 286 286 288 289 289 289 290 293 296 298 298 296 295 293 293 292 292 293 293 292 292 290 290 289 288 288 287 287 287 288 287 286 286 284 284 283 282 282 282 281 281 281 281 280 280 280
276 280 284 288 287 289 292 293 291 286 286 288 286 289 285 278 272 269 267 275 278 275 276 278 277 277 278 284 285 291 289 286 286 288 287 287 288 287 283 284 284 285 286 288 289 290 290 292 295 297 298 296 295 294 293 292 291 291 292 292 291 290 289 288 288 288 287 287 287 287 286 286 285 284 284 283 283 282 281 281 281 280 280 280 280 280
283 282 280 289 287 291 291 289 288 285 285 285 284 284 280 283 279 279 272 270 270 270 272 273 280 280 284 285 286 285 285 287 287 288 286 290 288 285 285 286 286 287 287 288 289 289 290 292 294 296 297 296 295 294 293 292 291 291 291 291 291 289 288 288 288 287 287 286 286 285 285 285 284 284 283 283 282 281 281 281 281 280 280 279 279 279
280 278 283 286 287 289 290 288 289 288 285 284 286 284 285 283 282 272 273 272 272 270 278 273 280 283 284 289 291 293 290 289 287 287 287 289 287 284 287 286 285 287 287 288 289 289 289 290 293 296 296 296 295 294 293 292 292 292 292 291 290 289 288 288 287 287 286 285 284 284 284 283 282 282 281 282 281 281 280 280 280 280 279 279 279 279
283 280 284 285 287 286 285 286 286 286 286 285 281 285 285 285 284 282 277 271 271 274 276 276 280 282 280 284 282 285 286 290 289 291 291 287 284 285 289 287 286 287 287 288 288 288 289 290 292 294 295 295 295 295 294 293 292 293 292 290 290 288 286 287 287 285 284 283 283 282 282 282 282 282 281 281 281 280 280 279 279 279 279 279 279 280
288 283 283 282 284 287 285 289 289 287 287 286 283 287 288 281 279 280 275 275 269 271 274 275 276 280 283 286 285 286 285 287 289 290 288 291 290 289 287 286 285 285 286 287 287 288 288 289 291 293 294 294 294 294 293 293 293 292 292 291 290 288 287 287 286 284 284 283 283 283 282 281 281 281 281 280 280 280 280 279 279 279 279 279 279 279
288 283 281 284 284 286 286 288 284 284 288 287 288 287 285 283 277 277 282 274 276 271 268 276 273 284 284 284 285 290 289 288 289 286 289 291 291 288 286 286 286 286 286 287 287 288 288 289 290 291 292 293 293 292 292 292 292 291 291 290 289 288 287 286 285 284 283 282 282 282 281 281 281 280 280 280 280 279 279 279 279 279 278 278 279 278
286 285 280 282 285 285 284 285 286 287 285 284 284 283 285 280 283 281 280 277 277 267 268 272 279 285 284 286 286 290 289 289 289 290 290 290 289 287 286 286 286 286 287 287 287 288 288 288 289 290 291 291 291 291 291 291 290 291 290 289 288 287 285 285 284 283 282 282 282 281 281 280 280 280 280 279 279 279 279 279 279 278 278 278 278 278
284 283 283 282 282 283 283 283 286 289 291 289 289 286 288 283 281 278 279 280 273 276 278 269 280 287 286 284 289 288 289 289 288 287 289 289 287 287 285 285 286 286 287 287 287 288 287 287 288 288 288 287 288 289 290 290 290 289 289 289 287 287 285 284 283 283 282 281 282 281 280 280 280 280 279 279 279 279 279 278 278 278 278 278 277 278
292 284 284 280 283 285 284 286 283 284 285 286 286 285 289 287 286 281 278 279 275 280 277 275 269 285 287 286 285 285 284 286 285 285 289 288 288 286 285 285 286 287 287 287 287 287 287 287 287 288 288 288 288 288 288 289 290 289 288 287 286 286 285 284 283 282 282 281 281 281 280 280 279 279 279 279 278 278 278 278 278 278 278 277 277 277
293 287 285 285 284 282 283 283 284 282 286 286 284 280 286 287 288 288 285 282 283 276 277 273 274 286 287 283 281 281 281 281 282 282 286 287 288 286 284 284 285 285 285 285 286 286 286 286 286 286 286 287 287 287 287 289 289 289 288 287 286 286 285 284 283 282 282 281 281 281 280 280 279 279 279 279 278 278 278 278 277 278 277 277 277 277
288 286 288 284 278 279 280 283 284 285 286 282 282 285 289 290 288 281 280 278 278 281 284 281 278 285 285 280 280 283 282 284 284 284 284 286 287 286 284 284 284 284 284 284 285 285 285 284 284 286 287 287 287 287 286 287 288 289 288 287 286 286 285 284 283 283 281 281 281 280 280 279 279 279 279 278 278 278 278 277 277 277 277 277 277 277
291 288 287 283 280 278 278 278 281 282 283 284 278 285 286 288 286 285 284 281 281 285 284 283 284 287 285 283 288 284 284 285 285 284 283 285 287 286 285 284 284 284 285 285 284 284 284 285 285 285 286 286 287 287 286 286 287 287 288 287 287 286 284 283 283 283 282 281 280 280 279 279 279 279 278 278 278 278 278 277 277 277 277 277 277 276
285 287 290 289 287 285 287 285 284 287 283 283 285 286 286 288 289 289 288 283 282 284 282 287 288 289 286 286 286 285 283 287 288 286 287 286 286 285 284 284 284 285 285 285 285 285 284 284 284 285 285 286 286 286 286 286 285 286 287 286 286 286 284 283 283 283 282 281 280 280 279 279 279 279 279 278 278 278 277 277 277 277 276 277 276 276
284 286 289 290 289 290 291 285 286 290 287 288 287 286 288 287 288 287 286 285 288 282 281 288 289 287 290 289 286 286 286 285 286 287 287 286 288 289 287 283 286 283 283 283 284 284 284 285 284 284 285 285 286 286 286 286 285 285 286 286 286 285 284 283 283 283 282 281 281 280 280 279 279 279 279 278 278 278 277 277 277 277 276 276 277 277
288 287 290 289 289 290 290 284 287 289 289 289 288 288 286 287 287 285 287 289 287 286 285 288 287 288 290 293 293 291 289 291 293 294 293 292 292 288 283 284 284 284 284 284 285 285 285 284 285 284 284 285 285 285 285 284 284 284 284 285 285 285 284 283 283 283 283 282 281 280 280 279 279 279 278 278 277 277 277 277 277 277 277 278 278 278
289 288 290 289 288 289 289 286 286 287 286 286 287 288 288 287 287 288 288 290 289 289 290 290 286 288 292 294 293 293 293 296 296 291 288 289 291 287 285 285 285 285 284 285 285 285 285 285 285 285 285 284 285 285 285 285 284 284 284 283 284 284 284 283 283 283 283 282 282 281 280 280 279 279 278 277 277 277 277 277 277 278 278 278 278 278
289 288 292 287 287 287 289 286 286 286 285 285 285 287 288 288 288 288 289 289 289 289 291 290 289 289 295 292 291 291 292 291 290 289 292 291 288 287 287 287 287 287 286 286 285 285 285 285 285 285 285 284 284 285 285 285 285 284 284 284 283 283 283 283 283 283 283 282 282 281 280 279 279 278 278 278 277 277 277 278 278 278 278 278 278 277
290 286 287 287 285 286 289 286 285 283 283 285 286 286 286 286 285 287 286 289 288 287 289 288 287 288 289 293 291 291 290 292 294 295 293 290 288 287 287 288 288 288 287 287 286 285 285 285 285 285 285 285 285 285 285 285 285 284 284 284 283 283 282 283 283 283 283 283 282 281 280 280 279 278 278 278 278 278 278 278 278 278 278 277 277 277
287 287 286 286 285 285 288 287 284 283 284 283 285 288 289 288 289 289 290 290 291 291 288 286 288 294 293 288 291 289 291 293 293 293 294 292 289 288 288 289 290 289 289 288 286 285 285 285 285 285 285 285 285 285 285 286 285 284 285 283 283 282 282 282 283 283 283 282 282 281 280 280 279 279 279 279 279 279 278 278 278 278 277 277 277 277
287 287 287 288 284 286 285 284 284 283 278 281 293 295 293 289 287 286 287 289 290 292 291 294 294 295 294 289 290 291 290 292 294 296 295 296 292 288 287 288 289 290 289 287 286 286 286 286 286 286 286 285 286 286 286 286 286 285 284 283 281 281 281 282 282 282 282 282 281 281 280 280 280 279 279 279 279 279 278 278 278 278 278 277 277 276
288 287 287 288 285 285 285 285 282 277 281 291 289 291 296 294 292 290 291 291 291 291 292 292 293 293 293 291 293 293 293 294 294 293 290 287 289 291 291 290 289 289 289 287 286 286 286 286 285 285 285 285 284 284 284 284 284 283 283 282 281 282 282 282 282 282 282 282 282 281 280 280 280 280 280 279 279 279 278 278 278 278 277 277 277 276
287 287 288 286 286 285 282 284 278 280 287 287 287 286 287 293 292 291 289 291 291 292 292 291 293 295 295 294 292 291 291 290 287 285 285 286 288 291 290 290 290 289 288 289 288 286 286 285 285 285 285 284 284 284 284 284 284 283 283 282 282 281 281 281 282 282 282 281 281 281 281 280 280 280 280 279 279 278 278 278 278 277 277 277 277 276
290 288 288 285 288 282 283 283 284 287 286 289 288 286 289 288 287 288 285 288 292 293 292 292 293 294 294 294 295 294 287 287 288 291 284 288 289 288 290 291 290 289 288 286 287 287 287 286 286 285 285 284 284 284 284 285 285 284 283 282 282 282 282 282 282 282 282 282 281 281 281 281 280 280 279 279 278 278 278 278 277 277 277 276 277 276
293 289 289 286 284 287 284 282 282 282 281 287 291 286 291 292 294 293 291 289 293 293 294 293 292 293 293 294 294 287 286 287 289 293 292 291 291 287 286 287 286 286 286 286 285 284 285 284 284 284 285 284 284 284 284 285 285 284 283 283 283 282 282 282 282 282 282 282 282 281 281 281 281 280 279 279 278 278 278 278 278 277 277 276 276 276
290 292 288 288 285 285 283 281 281 279 284 290 287 288 292 292 293 290 288 286 292 291 293 293 292 293 293 294 291 287 287 285 289 293 290 289 287 286 287 286 285 285 285 285 286 286 285 285 285 284 284 284 283 284 285 285 285 284 283 283 282 282 282 282 282 283 283 283 282 282 281 281 280 280 279 278 278 278 278 278 278 278 277 277 277 276
288 288 287 284 283 285 284 282 280 285 284 286 285 284 289 288 292 290 278 282 289 289 291 292 293 293 294 293 287 288 289 287 289 293 285 288 289 286 286 285 283 283 283 283 284 284 284 284 284 283 283 284 284 285 285 285 285 284 284 283 283 282 282 282 282 283 283 283 282 281 280 280 280 280 279 279 278 278 278 278 277 277 277 276 276 276
284 285 286 281 284 284 285 283 285 285 287 285 282 282 285 291 291 284 280 288 287 286 288 292 292 294 293 289 288 288 289 294 291 285 283 283 284 283 282 282 282 283 283 283 283 284 284 284 285 284 285 285 284 284 285 285 284 284 283 282 281 282 283 283 283 283 283 282 281 280 280 280 279 279 279 279 278 278 277 277 277 276 275 274 273 272
285 285 285 286 283 283 284 282 283 286 288 286 281 287 289 290 280 282 286 282 287 284 286 289 291 291 290 289 289 291 291 282 277 281 282 283 284 282 281 281 281 281 280 281 282 283 283 283 282 283 282 282 283 283 284 283 283 283 283 282 282 283 283 283 283 282 282 281 280 279 279 279 279 279 278 277 277 276 275 275 275 274 274 272 272 271
284 283 280 283 285 285 284 282 281 278 287 287 288 286 288 287 287 286 283 282 283 284 285 285 288 288 287 287 288 288 281 280 282 282 281 280 281 282 281 282 282 282 282 282 281 281 284 283 282 282 281 282 283 283 284 284 284 283 283 283 283 283 283 282 282 281 281 280 279 278 278 278 277 277 277 276 276 275 275 273 272 272 272 271 271 271
288 283 283 285 288 281 282 280 281 287 285 288 291 287 289 289 287 286 288 287 282 283 286 287 286 287 286 289 286 282 279 280 279 279 279 279 279 279 279 280 280 281 280 280 281 282 282 282 280 280 279 281 282 284 285 285 284 283 282 282 281 281 280 281 281 280 280 279 278 277 277 277 277 277 276 276 275 275 274 272 272 271 271 271 271 270
288 286 287 285 288 286 284 286 288 285 288 290 291 292 294 295 285 285 285 286 285 284 284 285 288 285 285 287 285 283 280 280 282 280 281 280 280 280 280 280 280 281 281 281 281 282 283 282 280 279 278 279 280 282 283 284 283 281 281 279 279 280 280 279 279 279 279 278 277 277 276 276 276 275 275 275 275 274 274 272 271 271 269 269 270 270
285 285 285 287 286 288 288 287 285 283 285 289 287 283 282 286 283 283 284 286 285 286 286 288 287 285 285 286 285 281 285 282 280 279 278 280 280 279 279 279 278 278 278 278 278 278 278 277 277 278 277 275 275 277 278 279 281 280 279 277 278 279 279 278 278 277 277 277 276 276 275 275 273 274 274 274 274 274 274 273 271 271 270 269 270 270
285 284 286 285 285 287 283 286 286 286 286 288 291 285 280 280 283 283 283 285 285 283 284 283 286 286 286 284 286 284 281 279 280 278 278 278 279 278 279 279 278 279 279 279 277 276 276 276 276 275 276 276 272 274 273 274 274 275 275 276 276 276 276 277 277 277 276 276 275 274 274 274 274 273 272 271 272 272 272 272 271 271 270 269 269 269
284 286 286 284 284 285 286 285 283 282 281 282 284 286 286 284 282 281 282 282 281 282 282 282 284 284 284 284 284 283 280 279 280 278 278 279 279 278 278 278 278 277 276 276 276 276 277 277 277 276 276 276 274 273 273 273 272 272 273 274 275 274 275 276 276 276 275 274 273 273 273 274 271 272 272 271 271 271 270 270 271 271 271 270 270 269
285 287 281 284 285 286 287 286 284 283 284 283 282 282 283 283 282 281 280 281 281 281 280 281 283 283 284 285 281 281 280 279 280 280 280 278 277 277 278 278 278 278 276 276 274 276 279 277 277 276 277 276 273 272 272 271 269 267 272 273 272 273 274 274 272 273 271 272 272 272 271 272 272 272 272 270 269 271 272 272 271 271 271 270 271 271
286 283 284 284 281 282 285 288 286 283 286 288 285 285 285 283 282 280 279 280 280 281 281 282 280 280 281 280 280 281 283 280 279 279 279 279 279 278 278 277 276 276 275 274 275 274 274 274 277 275 275 274 272 272 272 270 267 266 269 269 270 273 274 273 272 270 270 271 271 270 270 269 269 267 269 269 269 268 267 269 274 272 271 269 273 275
286 286 285 283 284 284 288 290 288 290 291 288 287 287 285 282 281 280 281 281 280 281 281 282 281 279 279 278 278 280 281 281 279 279 279 278 278 278 279 278 277 277 276 274 275 273 274 273 272 273 273 272 270 271 271 270 266 265 265 268 270 272 272 272 273 271 269 269 269 268 268 266 266 267 267 266 266 267 266 265 265 276 277 276 275 276
Wind_Speed
1 3 4 7 9 10 6 10 6 3 5 5 3 2 3 3 5 4 4 5 1 0 8 10 9 8 10 11 13 4 4 5 8 10 11 11 10 10 10 12 14 12 14 4 7 7 7 8 6 6 5 5 5 5 6 6 6 6 6 7 6 5 5 4 5 5 4 6 7 6 6 5 3 4 5 5 5 5 3 7 7 7 7 7 7 7
3 2 7 11 11 6 7 3 5 4 3 1 2 1 5 2 8 4 1 1 1 3 3 2 5 9 13 12 14 2 2 9 11 12 13 15 13 11 13 15 14 12 1 5 5 6 5 6 6 6 6 6 8 6 7 7 7 7 7 6 7 6 4 4 4 5 3 3 1 7 6 5 5 6 6 6 5 4 2 8 8 7 7 7 7 6
1 8 11 11 3 4 2 5 2 4 2 2 3 2 1 7 5 9 5 2 2 1 9 5 10 12 10 11 12 10 12 9 9 12 15 15 13 12 13 15 12 5 7 6 8 7 8 8 8 8 7 7 7 8 8 7 7 7 7 6 7 6 6 5 4 5 5 6 5 5 5 4 5 6 5 4 4 5 5 8 7 7 6 6 6 6
1 5 17 3 5 4 2 3 4 2 1 3 1 1 8 3 1 6 1 3 0 4 3 1 7 10 7 10 15 16 14 8 8 12 16 13 12 13 17 14 10 11 9 11 11 12 9 9 9 9 9 8 7 7 7 7 8 7 6 7 7 6 5 5 5 7 7 8 8 9 8 7 5 6 5 6 6 7 10 9 8 7 6 5 6 5
11 2 3 7 6 6 4 2 5 5 5 3 5 5 4 3 6 7 5 3 1 1 2 4 9 10 8 12 10 8 3 5 14 12 12 13 12 15 8 5 10 13 12 11 10 10 11 12 13 13 10 8 9 9 8 8 8 6 8 8 8 7 6 5 6 7 9 9 8 8 10 8 9 7 6 6 7 5 6 8 8 7 6 5 6 6
9 7 3 4 3 3 4 3 6 8 5 3 6 11 9 6 6 4 3 4 7 5 3 3 6 5 5 8 12 6 5 5 6 5 14 17 14 10 12 15 6 7 8 14 15 16 14 12 10 11 12 11 9 10 9 8 8 8 8 8 7 6 6 6 6 8 9 9 11 11 10 8 6 7 5 6 8 6 6 6 2 7 6 6 6 6
6 0 5 4 5 5 4 4 4 6 7 1 5 8 11 7 2 1 1 3 3 3 2 2 1 11 2 5 7 5 3 10 8 6 13 12 13 7 11 10 8 9 7 7 8 9 12 12 12 12 13 12 11 9 8 7 8 8 8 8 8 7 7 8 7 7 8 7 5 6 6 8 11 12 2 3 5 5 4 3 6 5 6 6 6 6
3 1 3 3 4 4 5 4 5 12 6 4 2 3 4 3 5 5 3 5 6 1 4 1 2 7 16 7 6 8 8 9 8 14 14 15 13 8 8 7 7 9 10 11 13 13 13 13 16 17 15 12 11 8 8 8 7 9 9 9 8 7 7 7 8 6 7 8 7 6 6 6 6 6 7 6 5 4 4 7 7 6 6 5 5 5
6 5 5 4 2 4 8 6 4 9 7 3 1 6 4 5 4 3 3 3 0 3 9 1 0 2 8 3 3 2 3 6 12 14 16 15 9 6 8 9 9 10 11 11 11 13 14 15 13 11 12 10 9 8 9 8 8 8 8 8 8 8 8 8 9 8 7 6 6 7 7 8 4 8 7 6 5 5 4 9 6 6 5 5 4 3
2 4 9 9 7 8 5 1 7 12 5 1 5 7 7 7 6 3 3 3 1 1 8 6 5 3 19 3 3 4 2 7 11 14 16 13 6 5 7 7 7 5 5 5 7 8 9 9 9 9 8 9 8 7 6 7 7 8 8 9 9 9 8 8 9 8 7 6 6 8 8 11 10 10 7 6 7 7 6 8 6 5 5 5 5 4
0 4 3 4 7 4 5 2 1 2 2 7 4 7 5 8 4 3 6 2 2 4 10 9 10 6 12 2 8 8 8 10 11 8 8 7 5 6 7 6 3 4 4 5 5 6 7 5 6 9 11 9 7 7 8 8 9 8 9 10 10 9 8 8 8 8 8 7 7 7 10 12 14 11 10 10 8 7 6 8 6 6 5 4 5 4
0 1 1 1 3 4 4 4 4 2 3 5 2 3 4 2 6 2 4 4 1 9 1 2 8 8 12 4 6 7 4 3 7 8 10 9 7 6 4 4 3 3 4 5 6 6 7 7 7 10 11 10 10 9 9 9 9 9 9 10 11 9 9 9 8 8 6 7 6 6 8 11 13 15 12 13 13 10 10 9 9 5 6 4 4 3
4 6 2 2 4 9 3 7 4 3 1 3 5 7 6 4 5 3 2 2 5 9 1 2 1 4 18 13 4 6 10 8 8 10 11 10 10 7 5 4 2 3 4 6 6 7 9 11 13 13 12 11 11 11 11 11 10 10 10 11 12 12 11 10 10 10 9 8 8 9 10 10 11 13 14 12 12 11 11 10 9 9 8 6 7 5
8 1 1 3 2 4 8 8 3 1 4 4 8 7 6 0 1 5 4 2 7 7 3 0 1 9 2 8 13 19 17 14 8 10 10 10 11 9 2 1 3 4 6 7 8 9 11 12 12 13 14 13 11 12 12 11 10 9 10 11 12 12 11 10 9 9 10 9 9 9 9 10 10 10 11 11 13 11 9 9 10 10 10 9 9 8
5 7 7 8 5 6 10 13 13 7 10 10 2 11 10 9 7 4 5 6 9 5 2 5 1 8 4 4 2 10 5 5 6 8 5 7 8 6 3 2 3 4 5 6 9 10 11 12 13 13 13 13 12 12 12 11 10 9 10 11 12 11 10 10 10 9 10 9 9 9 8 9 8 10 10 9 9 11 11 8 9 8 7 8 7 7
11 8 5 6 2 9 14 2 7 6 3 3 2 5 3 9 6 6 5 3 1 3 5 2 7 4 6 3 7 5 5 7 6 8 5 12 7 3 5 6 5 6 7 8 9 9 10 11 11 11 11 12 11 12 11 11 10 11 11 11 12 14 13 12 12 11 11 11 9 9 11 10 9 7 7 7 6 7 9 10 9 9 7 6 7 6
2 6 1 4 4 6 5 2 3 4 8 4 6 7 5 2 6 4 3 2 1 2 12 3 10 6 8 10 12 13 8 11 4 5 7 11 7 4 8 6 5 6 8 9 10 10 10 9 10 11 11 11 11 11 13 13 12 13 12 12 12 12 11 12 13 12 11 10 10 10 9 9 8 9 11 11 10 9 7 8 7 8 7 6 6 7
8 6 1 4 5 1 0 0 3 4 3 9 4 8 2 2 3 4 6 2 4 4 9 3 9 8 3 15 3 1 5 13 8 12 12 6 5 6 10 5 5 7 8 7 6 6 8 9 10 9 9 11 12 13 12 12 11 11 11 12 12 11 12 11 11 10 9 10 10 9 9 8 9 10 9 9 10 9 9 7 6 6 7 7 6 6
3 7 1 2 0 3 2 1 2 1 2 5 5 5 8 4 3 2 4 5 1 5 8 5 2 9 10 13 1 2 3 7 10 11 6 10 8 10 6 6 6 5 5 6 8 8 9 10 11 11 11 9 10 11 10 10 11 10 9 10 11 13 13 13 10 8 7 8 8 8 9 10 7 5 6 6 6 8 9 9 7 7 6 6 6 7
1 5 3 1 2 1 0 4 9 4 1 1 3 4 1 3 1 6 7 3 5 5 2 9 5 15 6 7 8 10 11 9 6 5 9 10 10 3 4 5 7 7 8 7 8 8 8 9 10 11 11 12 12 11 10 10 9 11 10 10 9 8 8 9 10 9 9 7 6 6 5 5 5 7 6 6 8 8 8 8 8 7 7 7 6 6
3 2 7 1 3 2 4 6 11 14 11 1 2 4 1 0 2 4 1 4 3 4 3 3 11 13 4 7 9 9 9 9 9 9 8 8 4 3 4 5 6 7 8 8 9 9 9 10 10 10 9 8 6 6 7 9 11 10 9 9 9 11 9 9 8 9 9 8 8 8 9 8 7 7 6 7 6 7 7 7 7 6 6 7 6 7
2 2 8 2 0 8 6 3 4 7 12 14 16 14 16 11 5 4 7 2 2 3 7 6 14 14 2 3 8 7 7 9 7 5 7 7 4 5 4 5 6 6 8 7 7 7 8 8 8 7 6 5 5 7 9 9 9 10 10 9 9 9 10 11 10 9 8 7 8 10 9 7 6 7 6 7 7 6 6 7 7 7 7 7 6 7
8 3 4 6 8 9 4 0 1 1 1 1 2 6 7 7 6 5 6 7 0 4 4 3 2 18 5 6 5 4 4 4 4 3 9 6 7 4 4 6 6 6 6 7 7 6 6 7 8 9 10 10 10 9 9 9 10 10 10 10 9 10 10 10 10 9 9 9 9 9 8 8 8 8 8 9 7 7 7 6 6 6 8 8 7 6
6 3 3 5 1 3 3 3 2 1 1 2 1 1 6 10 12 12 7 4 8 2 3 1 1 19 0 1 2 3 3 4 4 4 7 7 8 5 4 5 6 5 4 4 5 5 6 6 6 7 9 9 9 9 10 10 10 10 10 10 9 11 11 10 9 8 9 9 9 9 9 9 8 10 9 10 8 8 7 7 7 7 7 7 8 8
5 5 10 3 2 2 3 2 2 1 1 2 3 5 10 10 6 1 6 2 4 11 13 10 12 17 2 3 2 1 2 3 5 6 7 9 8 4 5 5 4 4 4 5 6 7 6 7 9 11 11 11 10 9 9 10 10 10 10 10 10 9 10 10 9 10 9 9 10 9 9 8 8 9 9 9 8 8 8 8 8 7 8 9 8 7
8 7 10 9 14 13 11 12 15 11 11 5 3 6 6 11 11 6 8 5 8 11 12 9 15 7 1 2 2 2 1 5 5 6 5 9 8 5 4 4 4 5 6 6 6 7 11 11 9 9 9 9 10 11 10 9 9 9 9 10 9 9 8 8 8 9 9 9 10 9 9 9 8 9 10 9 9 9 9 9 8 8 7 8 9 7
3 4 13 16 17 18 17 2 4 13 5 8 11 13 13 13 14 13 7 4 17 7 9 19 23 13 4 2 5 5 2 6 5 4 8 8 7 7 5 4 4 6 7 9 9 8 6 7 10 9 10 10 10 10 10 11 11 10 9 10 9 9 9 9 9 9 10 9 10 10 11 10 11 10 10 10 9 8 8 8 8 8 8 7 7 8
2 3 11 17 19 19 15 6 7 18 17 20 18 15 18 17 18 17 16 21 10 10 14 21 14 11 22 10 6 6 6 5 6 9 9 4 6 7 5 2 3 4 4 4 6 9 12 11 10 11 11 10 11 9 9 9 10 11 10 11 10 9 10 9 10 11 12 11 11 10 11 10 9 9 8 8 8 8 8 8 8 7 6 7 8 8
6 8 10 11 16 19 14 5 10 10 15 16 19 19 20 20 16 20 25 22 11 16 23 14 9 15 22 19 12 9 7 7 11 10 7 7 7 3 1 3 4 6 6 8 10 10 11 12 12 12 12 12 10 12 11 9 9 8 7 7 9 9 10 10 11 11 11 11 11 11 9 8 7 6 7 8 8 8 8 7 7 7 7 7 7 6
5 9 10 10 15 16 15 7 7 13 5 5 13 18 19 21 24 27 27 22 16 16 18 12 8 14 22 12 9 9 9 13 12 4 3 5 8 5 4 5 6 7 9 11 11 12 12 12 11 12 11 11 13 12 11 11 11 11 11 10 9 10 9 10 11 11 11 11 10 8 8 8 8 8 8 8 9 9 8 8 8 8 8 8 7 7
5 10 9 2 5 13 15 6 6 10 6 7 7 10 17 22 26 26 22 17 15 17 21 16 12 21 20 4 6 6 9 6 6 6 10 8 6 6 6 7 9 9 10 9 9 11 12 11 11 10 12 14 13 14 13 12 10 10 11 11 11 11 10 10 11 11 12 12 10 10 10 10 9 9 10 10 8 8 9 10 9 8 7 7 7 8
5 4 3 4 8 13 13 9 8 4 5 6 8 12 18 21 18 17 15 16 13 20 19 13 16 24 2 7 5 7 6 9 13 14 9 9 8 6 9 10 10 10 10 11 11 9 10 12 12 13 14 13 13 13 13 12 11 11 13 12 12 11 10 11 12 12 12 11 11 10 11 11 11 11 11 10 10 9 8 8 8 8 8 8 8 7
9 6 5 6 11 14 13 9 8 6 2 5 13 23 27 17 16 12 17 17 21 20 16 17 24 24 10 3 6 5 8 11 12 10 13 11 8 10 11 11 11 11 11 10 10 11 11 12 14 15 13 12 15 15 14 12 12 14 13 12 11 9 11 12 11 11 10 9 10 10 9 9 10 10 9 9 8 8 8 9 9 8 9 10 8 7
4 8 9 7 10 11 5 7 6 6 13 16 22 21 16 17 16 16 19 21 19 16 17 19 21 19 9 5 6 9 10 12 14 15 11 10 7 7 9 10 11 11 9 6 7 10 12 11 11 13 14 14 12 11 10 12 14 11 8 9 9 10 10 10 10 11 11 10 11 11 10 9 9 9 9 9 9 9 10 10 11 9 8 7 7 9
12 9 8 5 5 8 6 9 7 16 17 14 4 1 13 17 21 25 24 19 18 17 18 20 22 20 10 7 11 11 10 13 10 11 6 3 5 8 11 13 12 11 11 8 7 10 12 12 10 9 9 10 9 8 9 8 7 7 8 9 11 10 11 11 10 9 10 11 10 10 9 11 10 10 10 10 10 9 9 9 9 9 8 9 10 10
12 13 6 4 3 2 5 9 10 14 4 4 2 3 4 11 18 17 16 15 16 20 23 25 28 22 16 12 9 8 9 7 6 5 3 6 9 12 10 10 10 9 10 12 12 8 8 10 13 13 12 8 9 9 10 11 9 10 10 9 11 10 10 10 10 10 10 10 11 11 11 11 10 10 9 9 9 10 10 9 10 10 8 8 7 6
12 8 8 7 7 10 6 12 15 6 7 4 5 6 10 11 9 15 13 18 21 20 21 22 24 21 16 15 15 10 1 3 8 11 5 9 13 11 11 10 9 10 8 5 7 10 11 10 10 10 8 9 10 11 11 10 10 10 10 11 10 11 11 11 12 13 13 12 11 11 11 11 11 11 10 9 10 10 10 11 9 8 7 9 9 9
12 14 9 11 6 11 11 9 6 6 15 18 13 2 5 7 14 15 11 11 12 20 21 20 20 18 18 19 16 4 2 5 15 18 8 16 13 6 6 8 5 5 5 5 4 4 5 5 5 6 10 10 10 10 9 10 11 11 11 11 10 11 11 12 14 13 11 10 10 11 11 10 10 10 11 11 13 13 10 9 8 9 8 10 10 10
6 8 7 15 7 8 10 11 9 11 15 8 3 9 12 10 15 8 6 14 12 13 17 16 15 20 21 20 11 8 3 6 16 16 4 6 6 8 10 8 6 5 5 7 9 8 8 8 9 8 8 9 10 10 11 12 13 12 12 11 11 11 12 13 12 10 10 9 8 8 9 10 11 11 11 11 11 11 11 11 11 9 8 9 8 8
12 10 6 9 9 9 11 12 11 6 8 3 5 4 7 6 13 12 5 14 6 12 14 16 22 24 21 14 6 8 11 12 15 14 2 8 9 8 8 6 4 3 4 4 2 4 6 7 9 7 10 12 11 10 12 12 12 11 11 10 10 11 13 13 10 8 8 8 9 9 9 8 9 9 11 11 9 8 10 7 6 8 9 8 8 7
8 6 11 18 14 14 14 8 3 5 4 3 4 3 5 10 13 12 18 10 4 6 9 17 19 18 13 7 10 10 12 17 8 1 1 1 5 3 2 3 3 4 5 4 5 6 7 6 8 10 10 7 9 10 10 11 11 11 10 10 10 13 10 7 8 8 8 8 8 8 9 8 9 11 10 9 10 8 7 6 8 7 8 8 6 6
10 9 5 8 13 14 13 13 11 5 5 6 0 12 11 9 7 18 5 1 7 6 6 8 12 11 7 10 10 12 10 1 1 1 3 3 4 4 4 5 6 6 4 4 6 6 6 6 5 6 6 6 10 10 10 11 11 9 10 10 12 7 6 7 7 8 7 8 8 8 9 9 8 9 9 7 7 7 7 6 7 7 7 6 6 7
11 9 9 12 7 5 5 10 6 13 5 11 14 2 5 9 6 3 1 1 0 4 7 7 7 7 7 8 9 9 2 1 1 4 4 3 4 5 6 6 7 7 7 6 5 4 8 7 6 6 6 6 8 9 9 11 11 9 8 8 5 6 7 7 8 8 8 8 9 9 10 9 10 9 7 8 8 9 9 7 7 6 6 7 7 7
5 8 4 7 9 11 12 12 9 3 4 11 19 12 10 8 3 4 7 5 2 4 7 7 8 8 8 8 8 5 4 4 1 1 2 2 3 3 3 4 4 5 4 3 4 6 6 8 6 7 5 6 7 7 8 10 9 7 7 7 6 6 7 8 7 8 8 8 8 8 8 8 8 8 7 8 8 8 8 7 7 7 7 7 8 7
6 9 3 8 5 10 5 5 0 3 10 12 9 7 12 14 4 6 2 3 8 6 4 4 9 6 7 7 6 8 5 6 5 6 6 6 4 4 5 4 5 5 6 7 7 6 6 9 10 8 6 5 6 6 7 7 10 9 9 6 7 8 9 8 8 9 8 8 8 8 7 7 7 7 7 7 8 8 7 7 7 7 5 6 6 7
4 1 1 2 3 2 3 2 1 1 3 9 3 1 1 3 2 4 5 2 4 5 10 9 6 7 6 7 10 5 8 8 7 5 1 4 4 4 4 4 4 4 5 6 6 6 7 8 8 8 8 5 5 6 5 5 8 11 7 6 7 8 8 9 9 8 8 7 7 7 7 8 6 6 6 7 7 8 8 9 8 8 7 7 7 7
3 1 2 3 2 4 7 5 7 6 4 9 12 4 2 3 4 3 3 4 3 4 5 1 6 8 9 8 10 9 5 6 7 4 4 4 4 4 5 5 4 5 7 8 6 8 9 8 9 8 8 8 4 5 5 5 4 5 7 8 7 8 8 9 9 8 7 8 7 6 7 8 7 6 6 5 5 6 6 6 6 7 7 7 8 8
4 4 3 1 1 6 5 0 3 3 4 5 6 8 7 5 4 3 2 1 1 2 3 4 5 5 6 8 7 9 8 7 9 8 6 6 6 5 5 6 7 5 3 4 6 6 7 9 10 9 8 9 6 5 5 5 5 5 6 6 7 7 8 8 8 9 8 7 7 7 7 7 8 9 7 6 7 7 6 6 7 8 10 11 10 10
3 7 4 5 7 4 5 6 5 3 4 8 8 7 6 4 3 3 1 1 3 4 3 2 1 6 9 8 5 7 9 7 6 10 10 7 5 5 7 6 5 5 7 8 5 7 10 8 9 10 9 8 6 6 5 5 4 5 7 7 7 8 9 8 6 6 6 6 6 6 6 6 7 7 7 6 6 6 7 9 9 9 8 5 6 9
6 5 2 3 1 5 10 12 6 3 9 8 9 11 11 8 5 5 2 3 4 6 6 7 3 2 2 4 8 8 10 9 6 7 9 10 10 9 6 6 6 7 5 4 5 5 5 7 10 9 8 7 6 6 6 6 4 3 4 6 6 7 9 8 7 6 6 6 6 6 6 5 6 5 6 6 6 6 4 4 5 6 6 6 6 10
7 6 6 7 6 10 13 13 7 11 11 5 6 8 8 8 8 9 9 8 6 4 6 9 8 4 4 2 2 5 7 10 9 7 7 6 7 7 8 10 10 8 8 7 7 5 6 6 6 7 7 7 5 6 6 6 4 4 4 5 6 7 8 8 7 6 6 6 6 6 6 5 6 5 4 5 5 5 6 4 3 7 10 9 7 9
Wind_Direction
56 128 167 201 221 213 204 194 199 152 135 96 91 113 204 220 281 279 266 256 207 335 232 231 239 248 262 263 263 263 167 230 254 257 252 248 240 233 234 232 231 227 234 158 177 179 185 189 189 182 174 185 184 180 170 165 167 161 158 144 139 137 132 144 130 127 126 121 106 69 78 96 62 64 63 64 51 59 58 90 82 81 84 88 93 95
62 107 244 224 223 199 209 163 99 96 60 132 112 175 279 155 255 233 242 29 305 171 294 275 258 255 254 264 265 275 148 237 231 241 249 249 237 233 231 236 230 229 90 145 175 192 191 189 189 176 183 178 182 187 177 175 178 169 162 153 147 143 146 137 138 132 111 49 80 128 125 114 91 78 78 73 36 30 51 79 81 76 82 86 89 96
112 199 236 228 111 111 78 146 143 156 150 67 196 201 324 267 251 275 267 324 275 116 262 288 273 261 255 258 269 261 239 240 229 223 240 239 241 235 234 237 234 199 206 174 194 185 192 191 188 183 187 191 190 182 183 179 171 168 161 156 150 151 149 139 126 114 106 95 83 97 110 103 98 58 61 73 81 65 50 38 66 72 75 84 86 92
276 282 244 164 137 111 53 93 122 94 79 155 113 144 236 230 23 299 312 10 67 176 272 332 295 276 268 256 254 253 237 243 245 242 246 243 243 238 233 228 221 218 199 196 189 194 189 189 189 185 190 191 187 181 184 178 173 170 167 159 155 150 134 125 112 104 90 92 90 80 83 75 81 111 89 84 58 73 42 50 54 42 66 69 87 82
199 216 329 150 154 162 157 126 123 147 231 257 189 204 237 210 229 191 255 311 267 357 56 324 280 275 222 251 261 264 303 253 257 252 258 258 238 246 266 257 215 215 199 195 190 192 190 191 194 189 184 181 192 185 184 180 177 171 169 163 157 146 138 120 122 115 113 112 98 100 96 97 97 84 99 96 61 33 67 70 31 28 50 66 79 77
273 254 86 93 147 143 114 144 194 153 234 288 230 201 217 216 237 276 346 6 2 335 352 54 326 288 262 235 250 282 329 297 267 253 257 256 251 239 242 242 225 223 196 194 194 193 191 190 182 185 185 190 190 187 185 179 175 164 162 155 145 136 131 123 123 126 134 141 138 138 130 127 115 119 141 134 136 124 69 72 74 44 36 36 61 77
213 58 159 167 145 171 169 180 228 160 206 217 273 201 213 217 206 239 274 67 301 247 312 29 284 290 205 246 240 265 255 259 281 260 263 264 258 236 236 239 220 210 201 203 194 184 184 191 186 186 189 190 189 187 173 174 171 162 157 156 148 144 138 134 131 134 140 141 150 136 140 146 149 142 110 54 62 83 82 75 69 67 40 45 59 66
119 217 98 79 113 144 168 214 238 177 148 239 250 150 174 163 198 224 166 187 238 263 294 40 117 274 291 255 227 221 236 262 291 279 266 258 256 241 240 236 221 209 201 192 195 191 191 187 188 188 186 185 188 171 168 169 164 160 155 151 148 139 141 143 144 142 152 148 155 134 128 121 115 109 126 122 96 83 96 80 61 59 54 48 58 91
152 184 168 157 148 150 200 208 185 159 149 219 260 131 141 167 183 122 149 186 232 27 290 306 171 281 256 274 348 123 222 267 255 255 259 260 263 258 244 233 223 211 204 192 189 190 189 191 192 182 180 181 172 169 172 170 159 151 148 145 140 144 147 153 155 150 153 152 146 137 133 111 65 103 109 106 97 91 85 91 72 76 83 77 68 70
305 166 204 170 153 208 217 263 167 162 189 236 127 91 84 80 67 113 102 105 321 43 260 195 181 189 277 187 140 346 184 232 238 243 252 260 270 254 254 248 232 222 207 199 195 183 187 189 186 176 167 171 177 166 158 150 148 149 147 145 145 147 153 155 158 156 157 154 144 142 139 128 125 123 113 109 116 114 117 108 111 107 105 105 94 77
271 291 184 137 196 195 123 39 169 179 128 135 99 76 27 42 38 29 66 86 36 260 253 190 200 158 279 177 183 157 205 196 226 261 274 274 289 268 251 253 240 211 187 180 173 174 177 175 170 163 176 174 155 158 160 158 157 154 153 151 154 156 152 158 158 159 162 155 158 155 149 146 135 135 133 131 121 116 123 128 129 131 125 113 109 98
304 21 156 247 94 110 98 76 18 75 127 124 102 124 69 347 10 33 341 40 114 268 312 308 200 181 222 285 271 241 277 239 208 226 251 273 267 262 272 266 235 182 176 166 160 160 160 161 169 169 176 172 167 165 166 165 160 160 160 159 154 156 160 164 161 161 156 150 151 147 152 152 147 147 153 152 150 156 152 149 146 139 124 121 111 109
267 223 234 331 208 135 112 83 7 30 344 85 91 87 119 247 35 294 25 260 197 235 183 338 136 331 241 246 245 267 258 256 216 221 236 253 271 260 268 264 218 169 164 172 169 165 174 178 175 178 178 171 175 178 172 170 167 165 166 166 160 165 166 167 164 166 161 157 158 160 162 162 157 158 156 156 153 159 155 155 149 153 151 150 139 157
269 318 246 220 71 234 145 152 172 60 218 133 155 148 110 174 224 263 273 272 306 292 271 30 81 253 311 281 226 241 239 234 228 231 237 243 257 271 282 255 188 186 184 182 177 181 185 184 182 181 179 178 177 177 174 172 171 170 171 172 168 167 167 163 161 162 160 165 163 163 169 167 161 163 160 159 157 163 157 157 159 162 161 162 163 160
244 300 244 137 244 176 184 203 182 158 161 203 96 161 184 150 158 206 201 225 239 233 278 281 77 233 125 243 262 248 278 291 261 252 252 263 258 277 293 240 192 188 197 187 189 191 188 189 184 183 182 181 179 176 173 174 175 172 173 173 171 162 168 165 167 165 167 163 165 169 173 171 169 163 164 166 162 156 155 161 157 159 159 158 160 155
213 236 266 214 319 157 190 213 110 95 64 215 169 66 88 223 135 236 210 173 286 336 333 215 213 190 189 274 293 254 281 283 260 275 288 269 259 267 272 234 204 201 199 197 199 196 195 190 187 185 185 182 178 178 175 175 175 176 178 176 174 170 170 173 172 177 173 170 167 171 170 176 171 165 156 149 154 158 157 157 160 158 158 152 141 129
53 272 291 319 52 180 186 113 176 143 201 207 110 204 208 164 114 84 47 45 76 47 258 126 283 277 300 274 237 251 251 258 290 288 254 254 270 293 269 252 209 208 205 202 203 195 191 189 193 190 184 181 180 181 183 182 180 179 173 175 174 175 174 175 180 175 174 169 165 174 175 168 166 165 166 166 164 160 157 153 154 152 149 137 137 135
153 237 309 95 217 307 137 197 101 22 142 100 192 230 149 128 104 142 227 1 68 211 273 116 249 293 52 282 1 57 226 256 258 257 251 263 247 254 251 256 227 219 218 214 208 200 193 192 191 191 189 187 186 184 184 183 179 180 177 176 173 172 175 182 178 175 171 166 169 170 175 176 175 171 171 163 160 155 149 149 139 132 141 151 142 135
148 272 303 288 158 303 0 126 44 344 24 147 196 193 129 232 241 297 92 259 229 251 275 298 261 260 192 251 53 302 225 248 244 248 276 271 253 241 262 252 238 228 220 207 202 195 191 191 194 193 190 189 190 188 186 179 175 178 178 179 177 177 181 177 172 171 169 171 167 171 176 174 172 173 161 153 151 152 155 153 150 147 141 127 135 133
75 189 288 343 136 300 18 125 200 189 355 45 72 122 27 98 162 134 194 180 128 263 35 289 42 275 162 222 188 226 209 215 235 261 247 247 253 269 245 235 228 220 214 208 203 199 194 194 194 191 189 187 187 185 184 179 176 181 178 177 179 178 172 169 170 165 165 166 158 165 162 167 168 160 158 158 155 161 161 153 147 145 144 146 134 132
216 146 253 320 316 105 189 202 205 166 171 154 120 194 174 39 243 110 27 138 179 179 185 274 303 263 242 197 180 209 203 211 198 219 238 245 239 228 223 218 223 220 213 208 200 192 191 192 190 192 193 190 185 183 174 178 181 178 174 180 178 170 165 172 172 167 171 162 161 161 170 168 162 162 152 151 160 155 155 147 143 145 140 130 139 138
156 148 214 142 267 222 241 258 219 197 192 175 179 194 183 141 151 158 248 63 129 147 236 170 248 269 254 171 199 191 215 195 222 205 258 263 255 248 237 229 217 218 217 207 203 191 188 187 186 186 185 179 177 181 178 177 176 176 178 180 173 171 175 170 172 176 163 165 162 167 168 168 161 153 151 155 157 157 155 150 147 143 140 143 140 144
174 151 104 196 213 208 215 249 266 239 17 234 187 232 173 177 150 171 198 222 60 255 87 190 79 271 162 188 201 192 228 215 200 174 253 274 276 263 231 223 228 216 206 201 190 191 191 186 186 188 188 187 185 181 176 176 181 180 180 178 180 178 181 175 173 167 160 161 163 169 167 163 163 156 160 159 161 160 156 146 140 145 147 146 145 142
101 141 187 258 10 314 320 314 22 103 108 307 311 127 141 186 193 199 205 166 177 162 181 244 187 262 348 245 261 215 223 269 275 199 245 271 272 268 234 224 220 218 211 187 177 178 187 182 174 179 189 187 190 187 184 182 181 181 183 182 176 184 176 172 167 165 160 160 168 168 161 168 164 162 164 166 164 161 156 147 146 150 148 149 150 152
145 232 202 161 355 344 342 341 315 356 63 214 169 210 200 201 183 91 90 70 189 209 192 162 232 258 207 315 282 331 333 286 253 243 210 248 262 238 230 222 212 198 174 183 183 178 177 178 185 195 192 192 192 190 185 186 187 183 185 181 179 182 177 170 166 163 164 164 163 164 167 169 167 169 169 166 162 162 154 154 153 159 158 153 158 159
186 159 168 192 212 221 229 215 217 196 193 196 235 199 204 177 177 151 214 196 218 234 157 206 243 243 24 307 291 300 346 293 275 247 244 224 257 265 244 219 205 185 191 190 184 179 192 195 196 197 197 194 194 190 187 188 188 186 184 184 173 174 170 169 163 166 160 163 163 167 174 172 170 176 173 168 166 164 163 160 163 164 162 161 157 155
178 192 191 197 206 221 227 242 69 108 89 195 216 189 200 204 197 198 202 156 219 214 162 221 226 237 260 228 251 264 255 233 255 292 243 238 247 253 248 225 195 193 192 193 193 194 187 196 200 203 202 200 195 192 189 187 185 185 182 177 175 172 166 165 165 165 166 168 171 173 180 177 181 178 177 173 167 161 163 167 166 165 164 163 158 157
66 243 209 210 216 227 239 213 193 150 179 203 199 200 203 194 194 193 196 219 188 94 238 239 224 247 253 225 226 240 252 275 267 254 261 257 250 243 231 194 187 200 203 192 195 192 200 201 199 202 200 196 198 192 193 191 187 183 181 180 173 169 167 167 170 171 173 172 178 181 182 181 179 177 173 164 159 165 167 165 164 164 154 154 160 162
166 208 215 211 229 234 234 178 188 189 189 196 202 199 197 199 192 200 215 220 144 203 226 243 144 222 249 242 215 209 198 218 231 239 231 241 270 291 120 188 206 213 205 202 209 202 198 201 201 198 200 200 191 195 190 184 184 179 180 179 173 169 175 166 171 178 177 176 180 184 176 170 170 163 161 162 162 164 167 164 160 154 156 163 163 162
146 239 220 197 222 234 235 200 183 198 216 215 207 204 199 193 201 207 216 214 199 225 241 245 182 228 239 244 198 206 203 236 250 271 299 263 247 230 210 229 232 226 212 215 211 206 204 205 198 199 194 197 198 192 190 188 186 182 178 178 174 174 174 164 178 176 176 182 184 170 163 163 164 166 159 163 172 169 161 159 160 163 164 170 167 161
178 234 219 154 227 242 239 206 185 205 194 211 230 219 209 206 208 209 214 218 217 246 245 249 268 266 259 161 192 196 213 247 289 262 237 241 241 221 217 229 236 234 229 226 216 209 206 201 200 194 196 198 196 197 191 190 185 178 180 180 178 178 171 165 173 183 181 183 176 166 163 165 167 162 172 175 168 164 163 163 166 169 169 164 165 164
174 266 66 119 227 249 240 191 209 187 220 220 220 221 223 213 212 212 214 214 201 221 236 248 252 249 80 164 147 192 194 221 239 249 245 236 228 221 221 230 235 238 234 227 218 205 201 202 196 198 202 198 194 194 192 187 184 180 190 182 179 176 164 173 180 183 185 181 172 169 170 172 167 170 175 170 173 168 164 161 165 168 168 166 166 169
184 173 178 173 221 237 243 164 175 149 81 262 244 231 220 208 205 205 218 211 209 207 218 223 234 242 229 159 173 214 200 229 241 246 252 246 221 214 220 227 232 237 236 226 211 205 203 201 201 200 198 193 194 194 194 180 178 194 189 177 178 159 171 180 180 179 179 175 170 169 168 165 169 175 172 173 166 162 162 167 168 170 173 180 174 159
176 190 211 171 223 235 206 141 133 159 218 222 228 229 214 202 187 202 215 217 217 203 219 224 239 246 231 210 199 222 213 224 227 237 225 236 226 221 232 234 236 236 240 229 209 204 205 202 202 202 199 197 196 192 183 186 189 186 172 163 152 163 170 173 179 178 177 170 173 171 167 167 171 176 175 170 170 169 172 173 179 178 175 165 166 178
185 195 217 185 216 223 138 133 160 214 226 234 27 157 190 192 192 205 219 213 216 219 235 247 249 251 229 206 222 226 225 235 242 254 272 249 226 227 224 226 230 232 234 225 213 210 204 200 198 194 193 195 182 173 169 183 175 153 159 161 164 170 171 179 177 182 182 181 173 161 163 169 175 179 178 178 174 171 171 175 176 175 176 174 181 181
183 189 180 221 183 30 162 180 223 224 252 337 278 283 264 194 193 199 230 230 219 215 217 231 240 244 245 238 244 230 229 259 305 268 225 241 217 223 224 228 228 224 227 221 214 204 188 192 192 189 192 168 162 171 176 177 161 160 169 162 167 168 170 170 176 184 184 185 178 176 174 171 174 176 176 173 171 174 179 179 181 180 175 174 183 191
178 178 176 216 176 221 188 206 230 16 324 247 250 233 166 167 165 174 206 235 222 217 215 226 237 242 249 252 245 248 279 341 296 268 185 235 236 223 218 227 221 226 224 226 191 203 197 188 186 183 161 165 170 170 177 165 164 164 160 168 173 168 171 174 184 190 191 187 177 175 174 175 175 176 171 170 172 181 183 182 182 181 172 182 189 187
177 189 185 205 212 202 212 228 241 244 246 242 235 31 149 164 167 181 183 251 232 217 215 213 229 239 242 247 246 224 77 310 276 271 204 225 232 213 231 235 230 214 204 204 193 173 170 169 151 157 162 164 172 172 161 159 162 162 166 173 170 171 176 182 195 193 185 180 176 176 173 172 168 170 175 178 186 188 189 186 184 185 178 184 186 196
208 200 172 202 193 180 211 226 214 218 234 251 232 178 175 177 164 141 172 244 243 189 207 197 216 231 232 236 232 117 139 241 259 264 249 208 218 200 212 219 204 200 187 176 175 173 172 169 161 157 153 159 171 171 162 160 160 165 174 175 175 176 181 194 195 184 181 178 170 166 165 173 179 182 181 184 190 187 185 187 189 185 180 192 193 202
198 199 179 220 214 206 207 219 223 210 238 261 200 204 178 127 113 118 166 246 231 154 181 173 204 223 229 227 144 148 186 236 248 258 200 202 200 199 188 181 172 168 167 153 139 148 143 136 125 141 161 178 179 159 158 157 162 169 172 174 171 179 194 196 180 168 170 168 167 170 174 177 178 181 183 190 188 185 191 182 170 177 182 191 194 195
203 207 200 206 210 221 222 241 288 272 260 186 200 181 125 151 136 162 214 236 163 161 168 180 201 215 220 181 154 193 213 217 236 299 331 121 113 135 121 120 150 153 156 146 139 127 134 151 159 169 174 163 146 148 150 153 160 172 173 168 174 197 192 161 155 164 164 159 160 167 172 174 180 184 190 187 186 181 176 173 179 172 178 186 184 181
206 202 216 210 223 220 221 229 235 279 238 158 321 154 161 111 212 212 221 339 147 171 184 175 196 214 194 182 184 209 225 286 254 213 131 198 171 149 131 122 104 80 74 110 131 130 131 131 124 117 117 134 142 146 152 155 163 168 166 174 191 179 132 144 150 148 150 157 162 166 170 177 183 185 182 173 157 164 179 184 174 177 178 172 175 188
184 190 193 205 211 237 209 233 220 233 230 135 118 65 287 188 235 156 104 328 322 152 155 207 201 216 160 204 209 214 150 95 122 165 173 145 151 152 150 143 143 142 138 129 118 142 137 132 130 132 129 135 142 146 153 156 162 166 168 179 160 135 144 142 146 151 155 158 161 170 176 178 177 176 170 171 173 173 180 172 169 168 166 169 176 188
180 208 185 217 183 215 200 213 215 235 97 164 143 176 204 211 191 167 139 189 232 192 184 181 222 205 195 191 190 190 180 145 215 128 117 91 115 112 117 120 115 119 109 94 128 140 131 118 117 116 120 130 138 145 149 156 152 154 159 167 145 137 133 141 147 148 154 164 170 169 173 175 177 174 169 170 168 172 168 168 172 170 177 178 180 189
212 201 175 202 186 204 220 241 250 191 163 194 177 180 198 214 159 186 203 167 163 231 204 177 212 202 185 176 165 164 163 213 188 179 168 178 159 152 146 148 147 145 142 136 136 130 123 135 133 125 115 120 133 139 148 153 151 155 167 170 145 147 148 147 148 152 161 167 170 172 172 168 171 172 172 171 167 169 173 170 166 175 182 173 188 193
329 193 34 94 270 307 293 116 15 21 255 221 259 180 270 300 204 162 173 173 241 191 179 190 195 173 170 167 154 197 192 172 156 171 154 137 143 119 112 109 100 100 108 111 109 108 113 109 113 121 125 117 134 139 147 149 151 163 177 151 151 150 147 147 148 158 166 167 169 171 158 162 167 170 173 171 177 180 180 175 177 180 176 181 197 199
244 132 131 188 271 186 253 182 192 221 230 218 221 240 289 244 247 187 198 219 228 164 184 176 164 169 170 166 174 170 165 154 154 152 152 136 142 154 144 139 138 147 148 139 138 125 120 123 124 133 139 147 163 144 138 142 141 146 143 155 153 148 146 149 155 160 161 167 164 153 158 163 167 169 169 175 173 175 171 166 171 176 179 186 195 203
271 172 163 181 232 208 238 239 270 258 239 257 243 250 257 267 266 284 271 274 146 163 152 178 139 143 151 168 174 156 164 169 154 158 160 170 163 159 161 155 151 134 111 117 136 130 128 138 143 148 153 156 162 149 144 141 144 148 145 142 147 143 142 149 159 163 169 164 157 161 166 170 166 167 173 180 174 175 179 183 178 185 193 192 195 195
138 114 200 186 209 257 292 278 244 319 266 234 231 241 250 246 226 263 288 151 146 143 112 118 165 166 170 172 150 144 145 191 179 166 159 155 157 163 172 167 158 148 138 141 155 154 153 152 150 158 155 152 149 148 143 143 139 140 144 147 144 146 144 152 154 145 147 150 149 161 166 167 168 175 172 176 189 205 193 185 189 201 217 222 197 199
107 182 196 115 142 232 221 237 182 223 258 237 204 208 214 209 187 178 141 151 169 159 159 141 87 63 111 147 158 158 162 176 175 161 164 167 169 167 156 152 149 144 145 139 139 146 142 156 149 150 146 143 149 147 145 145 138 137 139 142 148 145 144 144 140 137 150 154 156 153 160 164 165 163 167 173 186 193 249 273 214 212 206 223 207 216
189 193 158 193 198 230 226 233 186 215 249 239 199 212 188 172 168 175 193 188 190 188 166 138 123 113 146 184 202 180 167 164 174 156 150 157 166 170 161 153 151 155 155 153 135 139 144 139 136 132 136 148 151 149 148 143 137 128 141 148 153 145 141 142 140 143 143 154 166 166 163 157 159 163 163 167 169 183 194 240 286 243 233 221 207 217